DW8522 Weather Reports


Display with metric or nautical units.
time (UTC)temp
F
wind
direction
speed
MPH
gust
MPH
rain 1hr
in
rain 24hr
in
rain mn
in
humidity
%
barometer
mb
20260509221553 62 200 2.0 13.0 0.00 0.03 0.02 81 1002.9
20260509220052 61 259 6.0 14.0 0.00 0.03 0.02 81 1002.9
20260509214548 60 152 4.0 11.0 0.00 0.03 0.02 83 1002.8
20260509213046 60 218 3.0 9.0 0.00 0.03 0.02 84 1002.8
20260509211544 59 321 3.0 10.0 0.01 0.03 0.02 85 1002.9
20260509210051 58 141 3.0 10.0 0.01 0.03 0.02 85 1002.9
20260509204538 58 172 3.0 7.0 0.01 0.03 0.02 87 1002.9
20260509203035 57 245 2.0 6.0 0.01 0.03 0.02 89 1002.9
20260509201534 56 160 2.0 7.0 0.00 0.02 0.02 90 1002.8
20260509200033 56 200 2.0 7.0 0.00 0.02 0.02 91 1002.8
20260509194534 55 184 2.0 8.0 0.00 0.02 0.02 91 1002.6
20260509193032 55 215 1.0 4.0 0.00 0.02 0.02 91 1002.7
20260509191530 55 181 1.0 6.0 0.00 0.02 0.02 90 1002.5
20260509190035 55 215 2.0 8.0 0.00 0.02 0.02 90 1002.4
20260509184535 55 211 1.0 6.0 0.00 0.02 0.02 89 1002.5
20260509183027 55 186 1.0 4.0 0.00 0.02 0.02 90 1002.5
20260509181527 55 135 1.0 4.0 0.00 0.02 0.02 90 1002.4
20260509180026 55 177 1.0 5.0 0.00 0.02 0.02 90 1002.4
20260509174525 55 193 0.0 4.0 0.00 0.02 0.02 90 1002.1
20260509173051 55 208 1.0 3.0 0.00 0.02 0.02 90 1002.1
20260509171528 55 174 0.0 5.0 0.00 0.02 0.02 90 1002.0
20260509170021 55 285 1.0 4.0 0.00 0.02 0.02 90 1001.9
20260509164519 55 127 0.0 3.0 0.00 0.02 0.02 91 1001.9
20260509163022 55 208 0.0 1.0 0.00 0.02 0.02 90 1001.9
20260509161516 55 149 0.0 4.0 0.00 0.02 0.02 91 1002.0
20260509160020 55 217 1.0 4.0 0.00 0.02 0.02 91 1002.0
20260509154512 55 205 0.0 3.0 0.00 0.06 0.02 91 1002.1
20260509153016 56 184 0.0 4.0 0.00 0.06 0.02 91 1002.3
20260509151508 56 315 1.0 4.0 0.00 0.06 0.02 93 1002.4
20260509150009 55 188 0.0 3.0 0.00 0.06 0.02 93 1002.3
20260509144506 56 178 1.0 3.0 0.00 0.27 0.02 94 1002.5
20260509143006 56 187 0.0 2.0 0.00 0.27 0.02 94 1002.3
20260509141502 56 184 0.0 4.0 0.00 0.27 0.02 94 1002.4
20260509140001 56 179 1.0 3.0 0.00 0.27 0.02 94 1002.6
20260509134559 56 146 0.0 3.0 0.02 0.28 0.02 94 1002.7
20260509133104 56 248 0.0 4.0 0.02 0.28 0.02 95 1002.5
20260509131604 57 166 0.0 1.0 0.02 0.28 0.02 95 1002.5
20260509130125 57 121 0.0 4.0 0.02 0.28 0.02 95 1002.8
20260509124553 56 150 0.0 0.0 0.00 0.27 0.00 95 1002.9
20260509123118 56 144 0.0 0.0 0.00 0.27 0.00 95 1002.8
20260509121550 56 144 0.0 0.0 0.00 0.27 0.00 95 1002.9
20260509120051 56 144 0.0 1.0 0.00 0.27 0.00 94 1002.8
20260509114618 56 149 0.0 0.0 0.00 0.27 0.27 94 1002.9
20260509113050 57 150 0.0 0.0 0.00 0.27 0.27 93 1002.7
20260509111543 57 149 0.0 0.0 0.00 0.27 0.27 93 1002.7
20260509110051 58 149 0.0 0.0 0.00 0.27 0.27 93 1002.9
20260509104542 59 172 0.0 0.0 0.00 0.28 0.27 92 1002.8
20260509103044 59 172 0.0 0.0 0.00 0.28 0.27 92 1003.2
20260509101553 59 172 0.0 1.0 0.01 0.28 0.27 91 1003.2
20260509100041 60 209 1.0 4.0 0.01 0.28 0.27 91 1003.5
20260509094540 60 104 0.0 1.0 0.01 0.28 0.27 91 1003.5
20260509093039 59 149 0.0 2.0 0.01 0.28 0.27 91 1003.6
20260509091543 60 145 0.0 1.0 0.00 0.28 0.26 90 1003.6
20260509090042 60 145 0.0 1.0 0.00 0.28 0.26 89 1003.7
20260509084538 60 145 0.0 3.0 0.00 0.28 0.26 88 1003.6
20260509083037 61 169 0.0 2.0 0.00 0.28 0.26 88 1003.2
20260509081537 61 135 0.0 3.0 0.00 0.28 0.26 87 1003.0
20260509080043 62 214 1.0 4.0 0.00 0.28 0.26 87 1003.0
20260509074538 61 305 2.0 6.0 0.00 0.28 0.26 87 1003.0
20260509073039 61 212 1.0 4.0 0.00 0.28 0.26 87 1003.0
20260509071534 60 134 0.0 3.0 0.00 0.28 0.26 87 1003.1
20260509070034 61 158 0.0 3.0 0.00 0.28 0.26 86 1003.1
20260509064541 60 183 1.0 2.0 0.00 0.28 0.26 88 1003.0
20260509063036 60 142 0.0 1.0 0.00 0.28 0.26 88 1002.9
20260509061534 60 142 0.0 0.0 0.00 0.28 0.26 87 1003.0
20260509060033 61 143 0.0 2.0 0.00 0.28 0.26 87 1002.9
20260509054537 62 120 0.0 1.0 0.00 0.28 0.26 86 1002.6
20260509053031 63 215 0.0 4.0 0.00 0.28 0.26 85 1002.6
20260509051530 63 233 2.0 5.0 0.00 0.28 0.26 84 1002.6
20260509050030 64 131 2.0 6.0 0.00 0.28 0.26 82 1002.8
20260509044528 64 249 1.0 3.0 0.00 0.28 0.26 80 1002.8
20260509043026 65 183 0.0 3.0 0.00 0.28 0.26 79 1002.9
20260509041525 65 178 1.0 5.0 0.00 0.28 0.26 78 1002.9
20260509040035 66 332 3.0 6.0 0.00 0.28 0.26 79 1003.0
20260509034524 66 177 1.0 9.0 0.00 0.28 0.26 77 1002.9
20260509033023 67 135 3.0 6.0 0.00 0.28 0.26 76 1003.0
20260509031527 68 248 3.0 10.0 0.00 0.28 0.26 74 1002.9
20260509030018 68 325 4.0 9.0 0.00 0.28 0.26 75 1003.0
20260509024517 69 249 2.0 5.0 0.00 0.33 0.26 74 1003.2
20260509023015 67 316 1.0 5.0 0.00 0.33 0.26 80 1003.2
20260509021517 67 81 4.0 8.0 0.00 0.33 0.26 77 1003.3
20260509020012 67 193 3.0 6.0 0.00 0.33 0.26 78 1003.5
20260509014527 66 188 2.0 6.0 0.00 0.33 0.26 81 1003.6
20260509013009 65 187 1.0 4.0 0.00 0.33 0.26 80 1003.7
20260509011505 66 284 2.0 6.0 0.00 0.33 0.26 79 1004.0
20260509010003 68 218 4.0 11.0 0.00 0.33 0.26 72 1004.2
20260509004612 69 268 3.0 5.0 0.00 0.43 0.26 74 1004.2
20260509003103 68 173 2.0 7.0 0.00 0.43 0.26 76 1004.5
20260509001553 66 231 2.0 6.0 0.00 0.43 0.26 78 1004.8
20260509000051 66 245 4.0 11.0 0.00 0.43 0.26 76 1005.0
20260508234554 67 238 4.0 8.0 0.00 0.44 0.26 76 1005.2
20260508233054 68 229 4.0 8.0 0.00 0.44 0.26 76 1005.4
20260508231550 67 302 3.0 7.0 0.00 0.44 0.26 78 1005.6
20260508230117 67 284 3.0 8.0 0.00 0.44 0.26 79 1005.8
20260508224549 67 89 2.0 9.0 0.00 0.44 0.26 80 1006.0
20260508223044 67 5 3.0 10.0 0.00 0.44 0.26 82 1006.1